Theta_e
302 302 302 302 304 304 307 308 309 309 308 308 308 308 307 305 304 304 302 301 300 299
297 297 297 298 299 299 301 303 304 304 302 302 303 302 301 300 298 298 297 296 295 294
294 294 294 295 294 295 297 298 299 299 299 299 299 298 296 294 294 292 292 292 292 291
291 291 292 291 291 292 293 294 295 295 294 294 293 293 292 291 290 289 289 289 289 288
289 289 289 289 289 290 289 291 291 291 290 290 290 289 289 288 288 287 286 286 286 285
288 287 287 287 287 288 288 288 288 288 288 288 288 287 287 287 286 285 284 284 283 282
286 287 286 286 286 286 287 287 286 286 286 286 286 286 286 285 284 283 282 282 282 281
285 285 285 286 286 286 286 286 286 285 286 286 285 285 284 283 282 281 280 280 281 281
283 282 282 283 284 285 285 285 284 284 284 284 285 286 285 283 281 280 279 277 278 278
281 281 281 281 282 283 283 283 282 282 282 281 283 286 284 282 279 278 277 277 277 278
281 281 281 280 280 280 280 280 280 279 280 280 283 285 284 282 279 279 278 278 278 278
280 280 279 279 278 278 278 279 279 279 279 279 280 284 283 281 279 279 278 279 278 278
280 279 278 278 278 279 279 279 279 279 278 278 279 283 283 280 279 278 278 279 279 280
279 279 278 278 278 278 278 278 277 277 277 278 278 280 282 282 279 278 277 278 277 278
Wind_Speed
8 5 4 5 4 4 4 6 5 5 5 6 5 6 6 6 5 6 5 7 6 4
8 8 6 6 6 5 5 5 5 6 7 7 7 7 7 6 6 6 6 6 7 5
7 8 6 5 8 7 6 7 8 8 8 7 6 7 7 6 7 8 5 5 6 5
6 9 6 8 9 7 7 8 7 7 7 7 7 8 8 8 8 9 7 6 6 7
11 10 9 6 8 7 7 7 7 6 7 7 7 8 9 8 8 9 8 7 7 7
9 9 7 7 9 8 7 7 7 7 8 8 8 9 8 10 9 9 9 8 8 6
9 8 9 6 6 6 6 8 8 8 8 8 9 9 10 9 10 10 9 8 8 7
7 7 6 5 5 6 7 7 8 8 8 9 8 6 8 8 9 9 9 8 8 7
6 6 5 5 5 6 7 7 8 8 8 8 6 15 14 10 8 7 7 7 6 5
5 6 5 5 5 6 6 7 8 7 7 7 7 14 14 12 6 6 5 5 5 5
5 6 5 5 5 6 5 6 6 6 5 6 7 13 14 12 6 6 6 5 5 5
5 5 5 5 5 4 5 5 5 5 6 6 5 11 11 8 5 6 5 4 4 4
5 5 5 5 5 3 3 4 5 6 5 5 5 8 9 6 3 4 3 3 3 6
5 5 5 4 3 4 4 4 4 5 4 4 3 4 6 5 3 2 3 2 1 1
Wind_Direction
55 65 58 50 47 47 58 55 30 66 67 57 57 64 65 68 65 60 64 69 63 76
57 59 54 52 59 49 40 69 55 65 69 61 59 62 76 72 73 71 65 71 75 72
63 75 65 54 75 52 38 52 58 57 55 61 64 75 76 84 76 84 64 68 75 71
81 71 71 61 58 54 47 49 55 64 72 73 69 80 91 85 89 89 82 66 69 63
56 53 53 48 66 68 60 57 69 71 74 72 76 75 77 80 74 79 73 66 65 56
79 69 62 61 51 57 68 64 65 68 70 73 73 79 78 78 76 71 66 63 65 53
61 63 51 56 65 73 81 87 82 74 74 74 76 75 78 80 82 78 71 65 62 52
58 61 59 58 66 74 77 80 83 86 80 79 83 84 90 93 93 93 88 72 69 60
77 81 81 67 56 66 73 74 77 72 75 80 87 101 106 106 103 99 95 95 83 67
83 84 80 85 79 73 73 79 73 70 76 75 83 99 100 96 91 100 97 97 95 79
100 96 81 72 75 73 70 81 91 82 68 76 89 103 105 100 89 87 81 85 85 87
99 102 102 88 84 84 87 77 81 91 83 76 83 110 112 99 84 84 81 87 90 93
121 114 109 108 98 68 71 103 104 102 96 97 94 103 108 111 108 114 113 106 113 102
122 124 129 116 109 114 98 86 76 87 89 97 102 105 109 131 130 142 142 127 120 69